<?xml version="1.0" encoding="UTF-8" standalone="no" ?>
<gpx xmlns="http://www.topografix.com/GPX/1/1" xmlns:xsi="http://www.w3.org/2001/XMLSchema-instance" xsi:schemaLocation="http://www.topografix.com/GPX/1/1 http://www.topografix.com/GPX/1/1/gpx.xsd" version="1.1" creator="VisuGPX - https://www.visugpx.com">
  <metadata>
    <name>Chateauneuf VDB</name>
  </metadata>
  <trk>
    <name><![CDATA[Chateauneuf VDB]]></name>
    <trkseg>
      <trkpt lat="47.28348" lon="3.22623">
        <ele>274.7</ele>
        <time>2019-11-25T16:21:57Z</time>
      </trkpt>
      <trkpt lat="47.28217" lon="3.22599">
        <ele>276.7</ele>
        <time>2019-11-25T16:21:57Z</time>
      </trkpt>
      <trkpt lat="47.2811" lon="3.22393">
        <ele>280.2</ele>
        <time>2019-11-25T16:21:57Z</time>
      </trkpt>
      <trkpt lat="47.28117" lon="3.22277">
        <ele>276.2</ele>
        <time>2019-11-25T16:21:57Z</time>
      </trkpt>
      <trkpt lat="47.28173" lon="3.22024">
        <ele>272.7</ele>
        <time>2019-11-25T16:21:57Z</time>
      </trkpt>
      <trkpt lat="47.28167" lon="3.21966">
        <ele>275.2</ele>
        <time>2019-11-25T16:21:57Z</time>
      </trkpt>
      <trkpt lat="47.281" lon="3.21893">
        <ele>276</ele>
        <time>2019-11-25T16:21:57Z</time>
      </trkpt>
      <trkpt lat="47.27969" lon="3.2185">
        <ele>265.9</ele>
        <time>2019-11-25T16:21:57Z</time>
      </trkpt>
      <trkpt lat="47.279" lon="3.21812">
        <ele>263.2</ele>
        <time>2019-11-25T16:21:57Z</time>
      </trkpt>
      <trkpt lat="47.27826" lon="3.21714">
        <ele>258.4</ele>
        <time>2019-11-25T16:21:57Z</time>
      </trkpt>
      <trkpt lat="47.27626" lon="3.21922">
        <ele>265.4</ele>
        <time>2019-11-25T16:21:57Z</time>
      </trkpt>
      <trkpt lat="47.2747" lon="3.22136">
        <ele>273.7</ele>
        <time>2019-11-25T16:21:57Z</time>
      </trkpt>
      <trkpt lat="47.27313" lon="3.22422">
        <ele>278.9</ele>
        <time>2019-11-25T16:21:57Z</time>
      </trkpt>
      <trkpt lat="47.27194" lon="3.22688">
        <ele>289.8</ele>
        <time>2019-11-25T16:21:57Z</time>
      </trkpt>
      <trkpt lat="47.27104" lon="3.23062">
        <ele>316.6</ele>
        <time>2019-11-25T16:21:57Z</time>
      </trkpt>
      <trkpt lat="47.27127" lon="3.23173">
        <ele>317.4</ele>
        <time>2019-11-25T16:21:57Z</time>
      </trkpt>
      <trkpt lat="47.2715" lon="3.23305">
        <ele>315</ele>
        <time>2019-11-25T16:21:57Z</time>
      </trkpt>
      <trkpt lat="47.27207" lon="3.23462">
        <ele>315.6</ele>
        <time>2019-11-25T16:21:57Z</time>
      </trkpt>
      <trkpt lat="47.27227" lon="3.23757">
        <ele>312</ele>
        <time>2019-11-25T16:21:57Z</time>
      </trkpt>
      <trkpt lat="47.27124" lon="3.23915">
        <ele>304.4</ele>
        <time>2019-11-25T16:21:57Z</time>
      </trkpt>
      <trkpt lat="47.27107" lon="3.2394">
        <ele>302.4</ele>
        <time>2019-11-25T16:21:57Z</time>
      </trkpt>
      <trkpt lat="47.27131" lon="3.24043">
        <ele>305.9</ele>
        <time>2019-11-25T16:21:57Z</time>
      </trkpt>
      <trkpt lat="47.27172" lon="3.24081">
        <ele>309.4</ele>
        <time>2019-11-25T16:21:57Z</time>
      </trkpt>
      <trkpt lat="47.27194" lon="3.24116">
        <ele>310.7</ele>
        <time>2019-11-25T16:21:57Z</time>
      </trkpt>
      <trkpt lat="47.27185" lon="3.24204">
        <ele>307.6</ele>
        <time>2019-11-25T16:21:57Z</time>
      </trkpt>
      <trkpt lat="47.27175" lon="3.24298">
        <ele>304.9</ele>
        <time>2019-11-25T16:21:57Z</time>
      </trkpt>
      <trkpt lat="47.27233" lon="3.24398">
        <ele>304.5</ele>
        <time>2019-11-25T16:21:57Z</time>
      </trkpt>
      <trkpt lat="47.27235" lon="3.24476">
        <ele>302</ele>
        <time>2019-11-25T16:21:57Z</time>
      </trkpt>
      <trkpt lat="47.27276" lon="3.24637">
        <ele>295.1</ele>
        <time>2019-11-25T16:21:57Z</time>
      </trkpt>
      <trkpt lat="47.27306" lon="3.24682">
        <ele>293.5</ele>
        <time>2019-11-25T16:21:57Z</time>
      </trkpt>
      <trkpt lat="47.27341" lon="3.25107">
        <ele>286.5</ele>
        <time>2019-11-25T16:21:57Z</time>
      </trkpt>
      <trkpt lat="47.27386" lon="3.25145">
        <ele>287.7</ele>
        <time>2019-11-25T16:21:57Z</time>
      </trkpt>
      <trkpt lat="47.27395" lon="3.25189">
        <ele>286.2</ele>
        <time>2019-11-25T16:21:57Z</time>
      </trkpt>
      <trkpt lat="47.27509" lon="3.2531">
        <ele>279.3</ele>
        <time>2019-11-25T16:21:57Z</time>
      </trkpt>
      <trkpt lat="47.27606" lon="3.25498">
        <ele>284.1</ele>
        <time>2019-11-25T16:21:57Z</time>
      </trkpt>
      <trkpt lat="47.27467" lon="3.25706">
        <ele>285.7</ele>
        <time>2019-11-25T16:21:57Z</time>
      </trkpt>
      <trkpt lat="47.28078" lon="3.27398">
        <ele>259.4</ele>
        <time>2019-11-25T16:21:57Z</time>
      </trkpt>
      <trkpt lat="47.28111" lon="3.26935">
        <ele>263</ele>
        <time>2019-11-25T16:21:57Z</time>
      </trkpt>
      <trkpt lat="47.28108" lon="3.26417">
        <ele>265.1</ele>
        <time>2019-11-25T16:21:57Z</time>
      </trkpt>
      <trkpt lat="47.28203" lon="3.25803">
        <ele>282.1</ele>
        <time>2019-11-25T16:21:57Z</time>
      </trkpt>
      <trkpt lat="47.28631" lon="3.25614">
        <ele>286.6</ele>
        <time>2019-11-25T16:21:57Z</time>
      </trkpt>
      <trkpt lat="47.28623" lon="3.25398">
        <ele>287.1</ele>
        <time>2019-11-25T16:21:57Z</time>
      </trkpt>
      <trkpt lat="47.28576" lon="3.25172">
        <ele>288.5</ele>
        <time>2019-11-25T16:21:57Z</time>
      </trkpt>
      <trkpt lat="47.28616" lon="3.24994">
        <ele>291</ele>
        <time>2019-11-25T16:21:57Z</time>
      </trkpt>
      <trkpt lat="47.28587" lon="3.24918">
        <ele>291.2</ele>
        <time>2019-11-25T16:21:57Z</time>
      </trkpt>
      <trkpt lat="47.28649" lon="3.2466">
        <ele>305.9</ele>
        <time>2019-11-25T16:21:57Z</time>
      </trkpt>
      <trkpt lat="47.28583" lon="3.24433">
        <ele>313.4</ele>
        <time>2019-11-25T16:21:57Z</time>
      </trkpt>
      <trkpt lat="47.28587" lon="3.24272">
        <ele>313.9</ele>
        <time>2019-11-25T16:21:57Z</time>
      </trkpt>
      <trkpt lat="47.28678" lon="3.23808">
        <ele>324.2</ele>
        <time>2019-11-25T16:21:57Z</time>
      </trkpt>
      <trkpt lat="47.28682" lon="3.23468">
        <ele>336.6</ele>
        <time>2019-11-25T16:21:57Z</time>
      </trkpt>
      <trkpt lat="47.28784" lon="3.23479">
        <ele>333.5</ele>
        <time>2019-11-25T16:21:57Z</time>
      </trkpt>
      <trkpt lat="47.29099" lon="3.22757">
        <ele>340.6</ele>
        <time>2019-11-25T16:21:57Z</time>
      </trkpt>
      <trkpt lat="47.29161" lon="3.2273">
        <ele>354.3</ele>
        <time>2019-11-25T16:21:57Z</time>
      </trkpt>
      <trkpt lat="47.29175" lon="3.22643">
        <ele>358.6</ele>
        <time>2019-11-25T16:21:57Z</time>
      </trkpt>
      <trkpt lat="47.29428" lon="3.22007">
        <ele>343.5</ele>
        <time>2019-11-25T16:21:57Z</time>
      </trkpt>
      <trkpt lat="47.29559" lon="3.21921">
        <ele>351.1</ele>
        <time>2019-11-25T16:21:57Z</time>
      </trkpt>
      <trkpt lat="47.29724" lon="3.21953">
        <ele>348.5</ele>
        <time>2019-11-25T16:21:57Z</time>
      </trkpt>
      <trkpt lat="47.29877" lon="3.21851">
        <ele>344.7</ele>
        <time>2019-11-25T16:21:57Z</time>
      </trkpt>
      <trkpt lat="47.29728" lon="3.21818">
        <ele>352.4</ele>
        <time>2019-11-25T16:21:57Z</time>
      </trkpt>
      <trkpt lat="47.29607" lon="3.21748">
        <ele>354.9</ele>
        <time>2019-11-25T16:21:57Z</time>
      </trkpt>
      <trkpt lat="47.29548" lon="3.21829">
        <ele>350.2</ele>
        <time>2019-11-25T16:21:57Z</time>
      </trkpt>
      <trkpt lat="47.29559" lon="3.21921">
        <ele>351.1</ele>
        <time>2019-11-25T16:21:57Z</time>
      </trkpt>
      <trkpt lat="47.29428" lon="3.22007">
        <ele>343.5</ele>
        <time>2019-11-25T16:21:57Z</time>
      </trkpt>
      <trkpt lat="47.29329" lon="3.22131">
        <ele>338.4</ele>
        <time>2019-11-25T16:21:57Z</time>
      </trkpt>
      <trkpt lat="47.29121" lon="3.22223">
        <ele>324.8</ele>
        <time>2019-11-25T16:21:57Z</time>
      </trkpt>
      <trkpt lat="47.2904" lon="3.22358">
        <ele>323.2</ele>
        <time>2019-11-25T16:21:57Z</time>
      </trkpt>
      <trkpt lat="47.2896" lon="3.22525">
        <ele>310.2</ele>
        <time>2019-11-25T16:21:57Z</time>
      </trkpt>
      <trkpt lat="47.28773" lon="3.22773">
        <ele>295.3</ele>
        <time>2019-11-25T16:21:57Z</time>
      </trkpt>
      <trkpt lat="47.28598" lon="3.22859">
        <ele>284.8</ele>
        <time>2019-11-25T16:21:57Z</time>
      </trkpt>
      <trkpt lat="47.28448" lon="3.22703">
        <ele>274</ele>
        <time>2019-11-25T16:21:57Z</time>
      </trkpt>
      <trkpt lat="47.28348" lon="3.22623">
        <ele>274.7</ele>
        <time>2019-11-25T16:21:57Z</time>
      </trkpt>
    </trkseg>
  </trk>
</gpx>